CW6734 Weather Reports


Display with metric or nautical units.
time (UTC)temp
F
wind
direction
speed
MPH
gust
MPH
rain 1hr
in
rain 24hr
in
rain mn
in
humidity
%
barometer
mb
20201130204528 34 317 3.0 8.0 0.00 0.61 0.61 94 1003.8
20201130203523 34 306 3.0 8.0 0.00 0.61 0.61 94 1003.6
20201130202518 34 327 4.0 7.0 0.00 0.61 0.61 94 1003.4
20201130201528 34 332 3.0 9.0 0.00 0.60 0.60 94 1003.3
20201130200519 35 329 3.0 9.0 0.00 0.60 0.60 94 1003.1
20201130195455 35 320 4.0 8.0 0.00 0.60 0.60 94 1002.9
20201130194520 35 325 3.0 6.0 0.00 0.60 0.60 94 1002.9
20201130193526 35 309 2.0 5.0 0.00 0.59 0.59 94 1002.8
20201130192527 35 316 2.0 7.0 0.00 0.59 0.59 94 1002.7
20201130191457 35 310 2.0 7.0 0.00 0.59 0.59 94 1002.4
20201130190428 35 325 2.0 6.0 0.00 0.58 0.57 94 1002.1
20201130185426 36 317 2.0 6.0 0.00 0.58 0.57 93 1001.9
20201130184349 36 325 2.0 6.0 0.00 0.58 0.57 93 1001.8
20201130183341 36 321 3.0 3.0 0.00 0.57 0.57 93 1001.8
20201130182849 36 330 2.0 8.0 0.00 0.56 0.57 93 1001.7
20201130181834 37 336 3.0 10.0 0.00 0.55 0.55 93 1001.5
20201130180759 37 38 2.0 11.0 0.00 0.55 0.55 93 1001.5
20201130175755 37 15 3.0 15.0 0.00 0.55 0.55 93 1001.4
20201130174729 37 355 3.0 15.0 0.00 0.55 0.55 93 1001.2
20201130173721 37 319 2.0 8.0 0.00 0.55 0.55 94 1001.2
20201130172658 37 321 3.0 9.0 0.00 0.53 0.54 95 1001.1
20201130171701 36 0 3.0 9.0 0.00 0.53 0.54 94 1001.1
20201130170636 36 28 3.0 7.0 0.05 0.53 0.54 94 1001.1
20201130165609 36 346 3.0 9.0 0.05 0.53 0.54 94 1001.2
20201130164615 36 330 3.0 10.0 0.05 0.52 0.52 94 1001.4
20201130163625 36 327 3.0 10.0 0.10 0.52 0.52 94 1001.5
20201130162626 36 331 3.0 11.0 0.06 0.51 0.51 94 1001.6
20201130161641 36 35 3.0 11.0 0.10 0.49 0.49 93 1001.8
20201130160616 36 15 3.0 10.0 0.04 0.48 0.48 93 1002.0
20201130155632 36 339 4.0 13.0 0.00 0.46 0.47 93 1002.1
20201130154610 36 331 3.0 14.0 0.00 0.46 0.47 93 1002.0
20201130153603 36 355 4.0 14.0 0.04 0.46 0.46 93 1002.0
20201130152540 36 9 3.0 13.0 0.05 0.46 0.46 93 1002.1
20201130151613 36 329 4.0 13.0 0.00 0.45 0.45 93 1002.2
20201130150532 36 348 4.0 11.0 0.04 0.43 0.43 93 1002.3
20201130145519 36 346 3.0 11.0 0.04 0.43 0.43 93 1002.3
20201130144540 37 28 3.0 10.0 0.04 0.42 0.43 93 1002.6
20201130143532 37 24 4.0 10.0 0.04 0.42 0.43 93 1002.3
20201130142544 37 40 3.0 10.0 0.06 0.42 0.42 93 1002.4
20201130141553 37 330 3.0 13.0 0.05 0.40 0.40 93 1002.4
20201130140523 37 317 2.0 13.0 0.06 0.39 0.40 93 1002.6
20201130135551 38 318 3.0 10.0 0.06 0.39 0.38 93 1002.7
20201130134533 38 355 4.0 10.0 0.09 0.38 0.38 93 1002.9
20201130133545 38 5 3.0 10.0 0.00 0.36 0.37 93 1003.0
20201130132526 38 5 3.0 10.0 0.00 0.36 0.36 93 1003.0
20201130131538 39 28 3.0 9.0 0.00 0.36 0.36 93 1002.9
20201130130524 39 28 3.0 9.0 0.04 0.36 0.36 93 1003.1
20201130125520 39 345 3.0 9.0 0.04 0.35 0.36 93 1003.2
20201130124538 39 355 3.0 8.0 0.06 0.35 0.35 93 1003.3
20201130123554 39 5 2.0 9.0 0.06 0.33 0.34 93 1003.4
20201130122537 39 41 3.0 9.0 0.04 0.32 0.33 93 1003.3
20201130121510 40 13 3.0 9.0 0.06 0.32 0.32 92 1003.4
20201130120458 40 58 2.0 7.0 0.06 0.31 0.31 92 1003.8
20201130115459 40 11 2.0 10.0 0.09 0.29 0.30 92 1004.0
20201130114431 40 17 3.0 10.0 0.10 0.27 0.27 92 1004.0
20201130113451 40 23 3.0 10.0 0.00 0.26 0.26 92 1004.1
20201130112444 40 344 3.0 9.0 0.00 0.24 0.25 92 1004.2
20201130111511 40 15 3.0 9.0 0.00 0.24 0.25 92 1004.2
20201130110452 40 51 3.0 9.0 0.00 0.24 0.25 92 1004.1
20201130105440 40 62 3.0 9.0 0.00 0.24 0.25 92 1004.2
20201130104512 40 59 3.0 9.0 0.00 0.24 0.25 92 1004.7
20201130103442 40 5 3.0 9.0 0.00 0.24 0.24 92 1005.0
20201130102428 40 26 3.0 9.0 0.00 0.23 0.24 92 1005.2
20201130101440 41 44 2.0 9.0 0.00 0.23 0.23 92 1005.6
20201130100425 41 33 3.0 9.0 0.00 0.23 0.23 92 1005.9
20201130095416 41 16 2.0 7.0 0.05 0.21 0.21 93 1005.9
20201130094356 41 46 3.0 7.0 0.05 0.21 0.21 93 1006.3
20201130093401 41 336 2.0 5.0 0.05 0.21 0.21 93 1006.7
20201130092419 41 36 1.0 4.0 0.04 0.19 0.20 93 1007.0
20201130091428 41 19 0.0 3.0 0.04 0.19 0.19 93 1007.5
20201130090357 41 139 1.0 7.0 0.04 0.19 0.19 93 1007.6
20201130085359 41 19 2.0 7.0 0.08 0.18 0.18 93 1007.2
20201130084411 41 53 2.0 7.0 0.10 0.16 0.17 93 1007.3
20201130083414 41 345 0.0 3.0 0.15 0.14 0.15 93 1007.8
20201130082431 40 0 0.0 3.0 0.10 0.13 0.13 93 1008.1
20201130081403 41 355 0.0 2.0 0.10 0.10 0.10 92 1008.4
20201130080419 41 38 0.0 2.0 0.06 0.09 0.09 92 1008.9
20201130075427 41 74 1.0 4.0 0.10 0.08 0.08 90 1008.9
20201130074357 41 80 0.0 3.0 0.17 0.06 0.06 90 1009.2
20201130073352 42 49 0.0 1.0 0.10 0.04 0.04 88 1009.3
20201130072323 42 51 1.0 3.0 0.05 0.02 0.02 86 1009.3
20201130071324 42 25 1.0 3.0 0.00 0.01 0.01 84 1009.4
20201130070321 42 16 0.0 3.0 0.00 0.01 0.01 84 1009.5
20201130065252 43 34 0.0 0.0 0.00 0.00 0.00 82 1009.4
20201130064244 43 94 0.0 0.0 0.00 0.00 0.00 78 1009.7
20201130063237 43 94 0.0 0.0 0.00 0.00 0.00 74 1009.9
20201130062242 43 94 0.0 0.0 0.00 0.00 0.00 71 1010.1
20201130061248 43 94 0.0 0.0 0.00 0.00 0.00 71 1010.2
20201130060245 43 94 0.0 0.0 0.00 0.00 0.00 72 1010.3
20201130055237 43 94 0.0 0.0 0.00 0.00 0.00 70 1010.6
20201130054217 43 94 0.0 0.0 0.00 0.00 0.00 72 1010.6
20201130053206 42 94 0.0 0.0 0.00 0.00 0.00 72 1010.7
20201130052222 42 94 0.0 0.0 0.00 0.00 0.00 73 1010.8
20201130051226 42 94 0.0 0.0 0.00 0.00 0.00 74 1011.0
20201130050226 42 94 0.0 0.0 0.00 0.00 0.00 74 1011.1
20201130045235 42 94 0.0 0.0 0.00 0.00 0.00 75 1011.4
20201130044300 43 152 0.0 0.0 0.00 0.00 0.00 74 1011.6
20201130043305 43 95 0.0 1.0 0.00 0.00 0.00 72 1011.5
20201130042240 42 36 0.0 1.0 0.00 0.00 0.00 70 1011.1
20201130041240 43 200 0.0 0.0 0.00 0.00 0.00 70 1011.5
20201130040227 43 200 0.0 0.0 0.00 0.00 0.00 70 1011.9
20201130035158 43 200 0.0 0.0 0.00 0.00 0.00 70 1012.3
20201130034138 43 200 0.0 0.0 0.00 0.00 0.00 69 1012.6
20201130033140 43 200 0.0 0.0 0.00 0.00 0.00 70 1012.6
20201130032133 43 200 0.0 0.0 0.00 0.00 0.00 71 1012.9
20201130031114 43 200 0.0 3.0 0.00 0.00 0.00 71 1013.1
20201130030124 43 102 0.0 1.0 0.00 0.00 0.00 69 1013.1
20201130025132 42 102 0.0 0.0 0.00 0.00 0.00 69 1013.4
20201130024121 42 103 0.0 0.0 0.00 0.00 0.00 71 1013.6
20201130023045 42 103 0.0 0.0 0.00 0.00 0.00 71 1013.9
20201130022043 43 103 0.0 0.0 0.00 0.00 0.00 69 1013.7
20201130021018 43 102 0.0 0.0 0.00 0.00 0.00 67 1013.6
20201130020036 43 102 0.0 0.0 0.00 0.00 0.00 64 1013.8
20201130015031 44 102 0.0 0.0 0.00 0.00 0.00 64 1014.1
20201130014030 44 102 0.0 0.0 0.00 0.00 0.00 64 1014.3
20201130013029 44 102 0.0 0.0 0.00 0.00 0.00 62 1014.5
20201130012016 44 102 0.0 0.0 0.00 0.00 0.00 63 1015.0
20201130010952 44 102 0.0 0.0 0.00 0.00 0.00 63 1015.1
20201130005944 44 102 0.0 0.0 0.00 0.00 0.00 64 1015.3
20201130004919 44 102 0.0 0.0 0.00 0.00 0.00 65 1015.2
20201130003912 45 102 0.0 0.0 0.00 0.00 0.00 60 1014.9
20201130002844 45 102 0.0 0.0 0.00 0.00 0.00 60 1014.9
20201130001851 45 102 0.0 0.0 0.00 0.00 0.00 59 1015.1
20201130000918 46 102 0.0 0.0 0.00 0.00 0.00 58 1015.1
20201129235935 46 103 0.0 0.0 0.00 0.00 0.00 56 1015.3
20201129234929 46 103 0.0 0.0 0.00 0.00 0.00 56 1015.7
20201129233901 46 103 0.0 0.0 0.00 0.00 0.00 56 1015.7
20201129232900 46 103 0.0 0.0 0.00 0.00 0.00 55 1015.7
20201129231850 47 103 0.0 0.0 0.00 0.00 0.00 55 1015.8
20201129230840 47 103 0.0 0.0 0.00 0.00 0.00 54 1015.9
20201129225837 47 103 0.0 0.0 0.00 0.00 0.00 54 1016.0
20201129224852 48 100 0.0 2.0 0.00 0.00 0.00 53 1016.0
20201129223849 48 182 0.0 0.0 0.00 0.00 0.00 53 1016.0
20201129222831 48 210 0.0 0.0 0.00 0.00 0.00 53 1016.0
20201129221815 49 210 0.0 0.0 0.00 0.00 0.00 53 1016.0
20201129220802 49 210 0.0 0.0 0.00 0.00 0.00 53 1016.2
20201129215729 50 211 0.0 0.0 0.00 0.00 0.00 52 1016.4
20201129214710 50 211 0.0 0.0 0.00 0.00 0.00 52 1016.6
20201129213702 50 211 0.0 0.0 0.00 0.00 0.00 52 1016.9
20201129212659 51 211 0.0 0.0 0.00 0.00 0.00 52 1017.0
20201129211655 51 211 0.0 0.0 0.00 0.00 0.00 52 1017.3
20201129210651 51 211 0.0 0.0 0.00 0.00 0.00 51 1017.3
20201129205716 52 211 0.0 0.0 0.00 0.00 0.00 52 1017.2